Time,TemperatureF,DewpointF,PressureIn,WindDirection,WindDirectionDegrees,WindSpeedMPH,WindSpeedGustMPH,Humidity,HourlyPrecipIn,Conditions,Clouds,dailyrainin,SoftwareType,DateUTC
2013-08-07 00:02:00,74.0,72.0,29.88,SE,127,6.0,10.0,94,0.00,,,0.00,,2013-08-07 05:02:00,
2013-08-07 00:11:00,74.0,72.0,29.88,ESE,122,6.0,9.0,94,0.00,,,0.00,,2013-08-07 05:11:00,
2013-08-07 00:22:00,74.0,72.0,29.88,SE,124,6.0,10.0,94,0.00,,,0.00,,2013-08-07 05:22:00,
2013-08-07 00:32:00,74.0,72.0,29.87,ESE,112,7.0,12.0,95,0.00,,,0.00,,2013-08-07 05:32:00,
2013-08-07 00:43:00,74.0,72.0,29.86,ESE,114,7.0,13.0,95,0.00,,,0.00,,2013-08-07 05:43:00,
2013-08-07 00:52:00,75.0,73.0,29.87,SE,142,5.0,12.0,94,0.00,,,0.00,,2013-08-07 05:52:00,
2013-08-07 01:02:00,75.0,73.0,29.87,SE,134,4.0,12.0,93,0.00,,,0.00,,2013-08-07 06:02:00,
2013-08-07 01:11:00,75.0,73.0,29.88,South,174,3.0,10.0,92,0.00,,,0.00,,2013-08-07 06:11:00,
2013-08-07 01:22:00,75.0,73.0,29.85,ESE,121,7.0,10.0,92,0.00,,,0.00,,2013-08-07 06:22:00,
2013-08-07 01:32:00,74.0,72.0,29.85,South,170,4.0,12.0,93,0.00,,,0.00,,2013-08-07 06:32:00,
2013-08-07 01:43:00,74.0,72.0,29.86,SE,134,3.0,7.0,93,0.00,,,0.00,,2013-08-07 06:43:00,
2013-08-07 01:52:00,74.0,72.0,29.86,SSE,147,6.0,10.0,94,0.00,,,0.00,,2013-08-07 06:52:00,
2013-08-07 02:01:00,74.0,72.0,29.85,SE,136,7.0,10.0,93,0.00,,,0.00,,2013-08-07 07:01:00,
2013-08-07 02:12:00,74.0,72.0,29.85,SSE,154,6.0,9.0,93,0.00,,,0.00,,2013-08-07 07:12:00,
2013-08-07 02:22:00,74.0,71.0,29.85,SSE,156,6.0,13.0,91,0.00,,,0.00,,2013-08-07 07:22:00,
2013-08-07 02:33:00,74.0,71.0,29.85,SSE,157,6.0,10.0,90,0.00,,,0.00,,2013-08-07 07:33:00,
2013-08-07 02:43:00,74.0,71.0,29.85,South,172,3.0,9.0,91,0.00,,,0.00,,2013-08-07 07:43:00,
2013-08-07 02:52:00,74.0,71.0,29.85,SE,133,4.0,7.0,91,0.00,,,0.00,,2013-08-07 07:52:00,
2013-08-07 03:01:00,73.0,70.0,29.84,SSE,149,5.0,9.0,91,0.00,,,0.00,,2013-08-07 08:01:00,
2013-08-07 03:11:00,73.0,70.0,29.84,SSE,152,5.0,8.0,91,0.00,,,0.00,,2013-08-07 08:11:00,
2013-08-07 03:22:00,73.0,70.0,29.84,SSE,156,4.0,9.0,91,0.00,,,0.00,,2013-08-07 08:22:00,
2013-08-07 03:32:00,73.0,70.0,29.84,SE,135,4.0,8.0,91,0.00,,,0.00,,2013-08-07 08:32:00,
2013-08-07 03:44:00,73.0,71.0,29.83,SE,130,5.0,9.0,92,0.00,,,0.00,,2013-08-07 08:44:00,
2013-08-07 03:52:00,72.0,70.0,29.83,SE,125,6.0,8.0,94,0.00,,,0.00,,2013-08-07 08:52:00,
2013-08-07 04:02:00,72.0,70.0,29.83,SSE,150,5.0,9.0,95,0.00,,,0.00,,2013-08-07 09:02:00,
2013-08-07 04:11:00,72.0,70.0,29.84,SSE,149,4.0,9.0,95,0.00,,,0.00,,2013-08-07 09:11:00,
2013-08-07 04:22:00,72.0,70.0,29.84,SSE,150,3.0,8.0,95,0.00,,,0.00,,2013-08-07 09:22:00,
2013-08-07 04:32:00,72.0,70.0,29.84,SSE,168,2.0,7.0,95,0.00,,,0.00,,2013-08-07 09:32:00,
2013-08-07 04:43:00,72.0,71.0,29.84,SSE,149,5.0,8.0,96,0.00,,,0.00,,2013-08-07 09:43:00,
2013-08-07 04:54:00,72.0,71.0,29.85,SSE,164,5.0,9.0,96,0.00,,,0.00,,2013-08-07 09:54:00,
2013-08-07 05:01:00,71.0,70.0,29.85,SSE,153,6.0,9.0,96,0.00,,,0.00,,2013-08-07 10:01:00,
2013-08-07 05:11:00,71.0,70.0,29.85,SSE,150,4.0,8.0,96,0.00,,,0.00,,2013-08-07 10:11:00,
2013-08-07 05:22:00,71.0,70.0,29.85,SSE,148,7.0,15.0,96,0.00,,,0.00,,2013-08-07 10:22:00,
2013-08-07 05:32:00,71.0,70.0,29.85,SSE,157,6.0,10.0,97,0.00,,,0.00,,2013-08-07 10:32:00,
2013-08-07 05:43:00,71.0,70.0,29.84,SE,139,3.0,10.0,97,0.00,,,0.00,,2013-08-07 10:43:00,
2013-08-07 05:52:00,71.0,70.0,29.84,SSE,153,6.0,12.0,97,0.00,,,0.00,,2013-08-07 10:52:00,
2013-08-07 06:01:00,71.0,70.0,29.84,SSE,154,4.0,9.0,97,0.00,,,0.00,,2013-08-07 11:01:00,
2013-08-07 06:11:00,71.0,70.0,29.84,SE,134,5.0,12.0,97,0.00,,,0.00,,2013-08-07 11:11:00,
2013-08-07 06:22:00,71.0,70.0,29.85,SSE,161,3.0,9.0,97,0.00,,,0.00,,2013-08-07 11:22:00,
2013-08-07 06:32:00,71.0,70.0,29.85,SSE,159,3.0,10.0,97,0.00,,,0.00,,2013-08-07 11:32:00,
2013-08-07 06:43:00,71.0,70.0,29.84,SSE,158,3.0,9.0,97,0.00,,,0.00,,2013-08-07 11:43:00,
2013-08-07 06:52:00,71.0,70.0,29.84,SE,138,1.0,8.0,97,0.00,,,0.00,,2013-08-07 11:52:00,
2013-08-07 07:02:00,71.0,70.0,29.83,SE,138,3.0,6.0,97,0.00,,,0.00,,2013-08-07 12:02:00,
2013-08-07 07:11:00,72.0,71.0,29.83,SE,136,2.0,6.0,97,0.00,,,0.00,,2013-08-07 12:11:00,
2013-08-07 07:22:00,72.0,71.0,29.85,SE,130,5.0,8.0,97,0.00,,,0.00,,2013-08-07 12:22:00,
2013-08-07 07:32:00,72.0,71.0,29.86,SSE,159,6.0,8.0,97,0.00,,,0.00,,2013-08-07 12:32:00,
2013-08-07 07:43:00,73.0,72.0,29.86,SSE,147,5.0,12.0,97,0.00,,,0.00,,2013-08-07 12:43:00,
2013-08-07 07:52:00,73.0,72.0,29.86,SE,145,6.0,14.0,96,0.00,,,0.00,,2013-08-07 12:52:00,
2013-08-07 08:02:00,74.0,72.0,29.86,SSE,164,9.0,14.0,95,0.00,,,0.00,,2013-08-07 13:02:00,
2013-08-07 08:11:00,74.0,72.0,29.86,SSE,161,7.0,14.0,95,0.00,,,0.00,,2013-08-07 13:11:00,
2013-08-07 08:22:00,74.0,72.0,29.86,SSE,161,8.0,14.0,95,0.00,,,0.00,,2013-08-07 13:22:00,
2013-08-07 08:32:00,74.0,72.0,29.86,SSE,156,7.0,13.0,95,0.00,,,0.00,,2013-08-07 13:32:00,
2013-08-07 08:44:00,75.0,73.0,29.86,SSE,159,8.0,15.0,94,0.00,,,0.00,,2013-08-07 13:44:00,
2013-08-07 09:02:00,75.0,73.0,29.86,SSE,157,7.0,14.0,94,0.00,,,0.00,,2013-08-07 14:02:00,
2013-08-07 09:12:00,76.0,74.0,29.86,SSE,165,7.0,13.0,93,0.00,,,0.00,,2013-08-07 14:12:00,
2013-08-07 09:22:00,76.0,73.0,29.86,SSW,197,10.0,16.0,91,0.00,,,0.00,,2013-08-07 14:22:00,
2013-08-07 09:33:00,77.0,74.0,29.86,SSE,164,5.0,14.0,89,0.00,,,0.00,,2013-08-07 14:33:00,
2013-08-07 09:43:00,78.0,74.0,29.86,SSE,162,8.0,12.0,87,0.00,,,0.00,,2013-08-07 14:43:00,
2013-08-07 09:52:00,78.0,74.0,29.86,SE,141,7.0,14.0,87,0.00,,,0.00,,2013-08-07 14:52:00,
2013-08-07 10:02:00,79.0,74.0,29.86,SSE,152,8.0,14.0,86,0.00,,,0.00,,2013-08-07 15:02:00,
2013-08-07 10:12:00,80.0,75.0,29.85,South,182,7.0,15.0,84,0.00,,,0.00,,2013-08-07 15:12:00,
2013-08-07 10:22:00,81.0,75.0,29.86,South,191,7.0,13.0,82,0.00,,,0.00,,2013-08-07 15:22:00,
2013-08-07 10:33:00,82.0,76.0,29.86,SSW,195,7.0,12.0,81,0.00,,,0.00,,2013-08-07 15:33:00,
2013-08-07 10:43:00,83.0,76.0,29.86,South,191,9.0,16.0,79,0.00,,,0.00,,2013-08-07 15:43:00,
2013-08-07 10:53:00,82.0,75.0,29.86,South,189,8.0,14.0,80,0.00,,,0.00,,2013-08-07 15:53:00,
2013-08-07 11:02:00,82.0,76.0,29.87,SSE,151,6.0,13.0,81,0.00,,,0.00,,2013-08-07 16:02:00,
2013-08-07 11:11:00,82.0,76.0,29.87,South,179,6.0,17.0,82,0.00,,,0.00,,2013-08-07 16:11:00,
2013-08-07 11:22:00,82.0,76.0,29.87,South,181,7.0,15.0,81,0.00,,,0.00,,2013-08-07 16:22:00,
2013-08-07 11:33:00,82.0,76.0,29.87,SSW,199,10.0,14.0,82,0.00,,,0.00,,2013-08-07 16:33:00,
2013-08-07 11:43:00,81.0,75.0,29.87,South,181,8.0,15.0,81,0.00,,,0.00,,2013-08-07 16:43:00,
2013-08-07 11:53:00,82.0,75.0,29.87,South,177,9.0,16.0,80,0.00,,,0.00,,2013-08-07 16:53:00,
2013-08-07 12:01:00,82.0,75.0,29.87,SSE,150,7.0,15.0,80,0.00,,,0.00,,2013-08-07 17:01:00,
2013-08-07 12:11:00,83.0,75.0,29.86,SSW,198,8.0,15.0,78,0.00,,,0.00,,2013-08-07 17:11:00,
2013-08-07 12:22:00,83.0,75.0,29.86,South,184,7.0,15.0,78,0.00,,,0.00,,2013-08-07 17:22:00,
2013-08-07 12:33:00,83.0,75.0,29.86,SSE,168,6.0,14.0,78,0.00,,,0.00,,2013-08-07 17:33:00,
2013-08-07 12:43:00,83.0,75.0,29.85,South,181,7.0,13.0,78,0.00,,,0.00,,2013-08-07 17:43:00,
2013-08-07 12:52:00,83.0,75.0,29.85,SSE,159,9.0,13.0,77,0.00,,,0.00,,2013-08-07 17:52:00,
2013-08-07 13:02:00,83.0,75.0,29.86,South,178,4.0,12.0,78,0.00,,,0.00,,2013-08-07 18:02:00,
2013-08-07 13:22:00,84.0,76.0,29.85,South,169,7.0,12.0,76,0.00,,,0.00,,2013-08-07 18:22:00,
2013-08-07 13:32:00,84.0,76.0,29.85,SSE,151,6.0,13.0,77,0.00,,,0.00,,2013-08-07 18:32:00,
2013-08-07 13:43:00,83.0,76.0,29.85,SSE,151,6.0,12.0,79,0.00,,,0.00,,2013-08-07 18:43:00,
2013-08-07 13:52:00,83.0,76.0,29.85,SSE,154,6.0,13.0,80,0.00,,,0.00,,2013-08-07 18:52:00,
2013-08-07 14:01:00,84.0,75.0,29.85,SSE,155,9.0,15.0,74,0.00,,,0.00,,2013-08-07 19:01:00,
2013-08-07 14:11:00,85.0,76.0,29.85,SSE,164,9.0,16.0,75,0.00,,,0.00,,2013-08-07 19:11:00,
2013-08-07 14:22:00,83.0,75.0,29.84,SSE,164,11.0,17.0,78,0.00,,,0.00,,2013-08-07 19:22:00,
2013-08-07 14:32:00,84.0,75.0,29.85,SSE,152,10.0,17.0,75,0.00,,,0.00,,2013-08-07 19:32:00,
2013-08-07 14:44:00,84.0,75.0,29.85,SSE,150,6.0,15.0,74,0.00,,,0.00,,2013-08-07 19:44:00,
2013-08-07 14:52:00,84.0,76.0,29.85,SSE,161,7.0,17.0,76,0.00,,,0.00,,2013-08-07 19:52:00,
2013-08-07 15:02:00,84.0,76.0,29.85,South,176,2.0,12.0,78,0.00,,,0.00,,2013-08-07 20:02:00,
2013-08-07 15:11:00,79.0,70.0,29.86,NE,41,7.0,24.0,75,0.00,,,0.00,,2013-08-07 20:11:00,
2013-08-07 15:22:00,76.0,70.0,29.86,NNE,21,10.0,15.0,82,0.00,,,0.00,,2013-08-07 20:22:00,
2013-08-07 15:43:00,76.0,71.0,29.85,ENE,69,9.0,15.0,84,0.00,,,0.00,,2013-08-07 20:43:00,
2013-08-07 15:52:00,76.0,71.0,29.85,NE,42,10.0,21.0,84,0.00,,,0.00,,2013-08-07 20:52:00,
2013-08-07 16:01:00,76.0,71.0,29.85,NNE,31,9.0,16.0,85,0.00,,,0.00,,2013-08-07 21:01:00,
2013-08-07 16:11:00,76.0,71.0,29.85,NE,40,10.0,16.0,84,0.00,,,0.00,,2013-08-07 21:11:00,
2013-08-07 16:22:00,77.0,72.0,29.85,NE,45,7.0,15.0,85,0.00,,,0.00,,2013-08-07 21:22:00,
2013-08-07 16:32:00,80.0,72.0,29.85,NE,42,7.0,13.0,78,0.00,,,0.00,,2013-08-07 21:32:00,
2013-08-07 16:43:00,80.0,72.0,29.86,East,100,8.0,12.0,78,0.00,,,0.00,,2013-08-07 21:43:00,
2013-08-07 16:52:00,81.0,73.0,29.85,NE,49,5.0,10.0,78,0.00,,,0.00,,2013-08-07 21:52:00,
2013-08-07 17:01:00,81.0,72.0,29.85,ENE,76,6.0,10.0,75,0.00,,,0.00,,2013-08-07 22:01:00,
2013-08-07 17:12:00,82.0,72.0,29.86,ESE,123,6.0,10.0,72,0.00,,,0.00,,2013-08-07 22:12:00,
2013-08-07 17:22:00,82.0,73.0,29.86,SE,137,5.0,9.0,74,0.00,,,0.00,,2013-08-07 22:22:00,
2013-08-07 17:32:00,84.0,73.0,29.86,SE,140,6.0,8.0,70,0.00,,,0.00,,2013-08-07 22:32:00,
2013-08-07 17:43:00,83.0,73.0,29.86,SE,128,4.0,8.0,72,0.00,,,0.00,,2013-08-07 22:43:00,
2013-08-07 17:52:00,82.0,73.0,29.86,SE,130,7.0,10.0,74,0.00,,,0.00,,2013-08-07 22:52:00,
2013-08-07 18:01:00,83.0,73.0,29.85,SSE,159,6.0,8.0,72,0.00,,,0.00,,2013-08-07 23:01:00,
2013-08-07 18:11:00,84.0,73.0,29.85,SE,139,4.0,6.0,70,0.00,,,0.00,,2013-08-07 23:11:00,
2013-08-07 18:22:00,84.0,74.0,29.85,WNW,286,7.0,10.0,71,0.00,,,0.00,,2013-08-07 23:22:00,
2013-08-07 18:32:00,83.0,74.0,29.86,WSW,238,5.0,12.0,74,0.00,,,0.00,,2013-08-07 23:32:00,
2013-08-07 18:43:00,83.0,73.0,29.86,SSW,209,7.0,9.0,73,0.00,,,0.00,,2013-08-07 23:43:00,
2013-08-07 18:52:00,83.0,74.0,29.86,SW,227,6.0,10.0,75,0.00,,,0.00,,2013-08-07 23:52:00,
2013-08-07 19:01:00,83.0,74.0,29.86,WSW,245,7.0,9.0,75,0.00,,,0.00,,2013-08-08 00:01:00,
2013-08-07 19:22:00,83.0,74.0,29.88,South,185,3.0,8.0,75,0.00,,,0.00,,2013-08-08 00:22:00,
2013-08-07 19:32:00,82.0,74.0,29.88,SSW,210,5.0,7.0,77,0.00,,,0.00,,2013-08-08 00:32:00,
2013-08-07 19:42:00,82.0,74.0,29.88,SW,231,4.0,8.0,76,0.00,,,0.00,,2013-08-08 00:42:00,
2013-08-07 19:52:00,82.0,74.0,29.88,SW,231,4.0,8.0,76,0.00,,,0.00,,2013-08-08 00:52:00,
2013-08-07 20:02:00,81.0,75.0,29.89,South,172,5.0,8.0,82,0.00,,,0.00,,2013-08-08 01:02:00,
2013-08-07 20:11:00,80.0,75.0,29.89,SSW,206,2.0,8.0,85,0.00,,,0.00,,2013-08-08 01:11:00,
2013-08-07 20:22:00,79.0,74.0,29.89,SW,218,3.0,6.0,86,0.00,,,0.00,,2013-08-08 01:22:00,
2013-08-07 20:32:00,79.0,74.0,29.89,SSE,161,1.0,7.0,86,0.00,,,0.00,,2013-08-08 01:32:00,
2013-08-07 20:43:00,79.0,75.0,29.89,South,186,4.0,6.0,87,0.00,,,0.00,,2013-08-08 01:43:00,
2013-08-07 20:52:00,78.0,74.0,29.89,SSE,165,0.0,7.0,88,0.00,,,0.00,,2013-08-08 01:52:00,
2013-08-07 21:02:00,77.0,74.0,29.90,SSE,159,0.0,5.0,89,0.00,,,0.00,,2013-08-08 02:02:00,
2013-08-07 21:11:00,76.0,74.0,29.91,SSE,147,0.0,5.0,92,0.00,,,0.00,,2013-08-08 02:11:00,
2013-08-07 21:22:00,75.0,73.0,29.91,SE,130,0.0,3.0,93,0.00,,,0.00,,2013-08-08 02:22:00,
2013-08-07 21:32:00,76.0,74.0,29.91,SW,215,1.0,6.0,92,0.00,,,0.00,,2013-08-08 02:32:00,
2013-08-07 21:42:00,77.0,72.0,29.91,SW,227,3.0,7.0,85,0.00,,,0.00,,2013-08-08 02:42:00,
2013-08-07 21:52:00,77.0,71.0,29.92,WSW,248,6.0,8.0,83,0.00,,,0.00,,2013-08-08 02:52:00,
2013-08-07 22:01:00,76.0,70.0,29.92,WSW,252,4.0,8.0,83,0.00,,,0.00,,2013-08-08 03:01:00,
2013-08-07 22:12:00,76.0,70.0,29.92,West,269,6.0,9.0,83,0.00,,,0.00,,2013-08-08 03:12:00,
2013-08-07 22:22:00,75.0,70.0,29.92,WSW,256,6.0,8.0,84,0.00,,,0.00,,2013-08-08 03:22:00,
2013-08-07 22:32:00,75.0,70.0,29.92,West,273,6.0,9.0,85,0.00,,,0.00,,2013-08-08 03:32:00,
2013-08-07 22:43:00,75.0,70.0,29.92,West,273,6.0,9.0,85,0.00,,,0.00,,2013-08-08 03:43:00,
2013-08-07 22:52:00,74.0,70.0,29.93,WSW,257,7.0,10.0,86,0.00,,,0.00,,2013-08-08 03:52:00,
2013-08-07 23:01:00,74.0,70.0,29.93,WSW,254,7.0,12.0,86,0.00,,,0.00,,2013-08-08 04:01:00,
2013-08-07 23:11:00,74.0,69.0,29.93,NW,313,5.0,9.0,85,0.00,,,0.00,,2013-08-08 04:11:00,
2013-08-07 23:22:00,74.0,69.0,29.93,NW,313,5.0,9.0,85,0.00,,,0.00,,2013-08-08 04:22:00,
2013-08-07 23:33:00,73.0,69.0,29.93,West,269,7.0,9.0,86,0.00,,,0.00,,2013-08-08 04:33:00,
2013-08-07 23:43:00,72.0,68.0,29.93,West,275,8.0,13.0,87,0.00,,,0.00,,2013-08-08 04:43:00,
2013-08-07 23:53:00,72.0,68.0,29.94,West,268,7.0,12.0,88,0.00,,,0.00,,2013-08-08 04:53:00,